When you browse on this site, cookies collect data to enhance your experience and personalize the content and advertising you see.
Visit our Privacy Policy to learn more. By continuing to use the site, you agree to this use of cookies and data.
  • In Romania
  • List of Countries
  • For 7 days
  • Water Temperature
  • Weather Map
  • Weather Widgets
  • user-avatar
    Login

    Hourly Weather Wien

    Today, 18 October, Friday

    Time Temperature Precipitation Wind Pressure Humidity
    00:00 +13°C° 0 mm 1 mps 743 mmHg 88%
    01:00 +12°C° 0 mm 1 mps 743 mmHg 89%
    02:00 +12°C° 0 mm 1 mps 743 mmHg 90%
    03:00 +12°C° 0 mm 1 mps 743 mmHg 90%
    04:00 +11°C° 0 mm 1 mps 743 mmHg 91%
    05:00 +11°C° 0 mm 1 mps 743 mmHg 91%
    06:00 +11°C° 0 mm 1 mps 743 mmHg 91%
    07:00 +11°C° 0 mm 1 mps 743 mmHg 90%
    08:00 +13°C° 0 mm 1 mps 743 mmHg 83%
    09:00 +14°C° 0 mm 1 mps 743 mmHg 76%
    10:00 +16°C° 0 mm 1 mps 743 mmHg 69%
    11:00 +18°C° 0 mm 1 mps 743 mmHg 65%
    12:00 +19°C° 0 mm 1 mps 742 mmHg 60%
    13:00 +20°C° 0 mm 1 mps 742 mmHg 56%
    14:00 +19°C° 0 mm 1 mps 742 mmHg 58%
    15:00 +19°C° 0 mm 1 mps 742 mmHg 60%
    16:00 +19°C° 0 mm 1 mps 741 mmHg 61%
    17:00 +18°C° 0 mm 1 mps 741 mmHg 67%
    18:00 +15°C° 0 mm 1 mps 741 mmHg 72%
    19:00 +14°C° 0 mm 1 mps 741 mmHg 77%
    20:00 +14°C° 0 mm 1 mps 742 mmHg 79%
    21:00 +13°C° 0 mm 1 mps 742 mmHg 80%
    22:00 +12°C° 0 mm 0 mps 742 mmHg 81%
    23:00 +12°C° 0 mm 0 mps 742 mmHg 83%

    Tomorrow, 19 October, Saturday

    Time Temperature Precipitation Wind Pressure Humidity
    00:00 +11°C° 0 mm 0 mps 742 mmHg 84%
    01:00 +11°C° 0 mm 0 mps 742 mmHg 85%
    02:00 +11°C° 0 mm 0 mps 742 mmHg 86%
    03:00 +10°C° 0 mm 0 mps 742 mmHg 86%
    04:00 +10°C° 0 mm 0 mps 742 mmHg 87%
    05:00 +11°C° 0 mm 1 mps 742 mmHg 88%
    06:00 +11°C° 0 mm 1 mps 741 mmHg 89%
    07:00 +11°C° 0 mm 1 mps 741 mmHg 90%
    08:00 +13°C° 0 mm 2 mps 741 mmHg 85%
    09:00 +14°C° 0 mm 2 mps 741 mmHg 81%
    10:00 +14°C° 0 mm 3 mps 741 mmHg 76%
    11:00 +17°C° 0 mm 3 mps 740 mmHg 71%
    12:00 +18°C° 0 mm 3 mps 740 mmHg 65%
    13:00 +19°C° 0 mm 3 mps 740 mmHg 60%
    14:00 +19°C° 0 mm 2 mps 740 mmHg 61%
    15:00 +19°C° 0 mm 2 mps 740 mmHg 62%
    16:00 +20°C° 0 mm 1 mps 739 mmHg 63%
    17:00 +18°C° 0 mm 1 mps 740 mmHg 68%
    18:00 +16°C° 0 mm 1 mps 740 mmHg 73%
    19:00 +15°C° 0 mm 1 mps 740 mmHg 78%
    20:00 +14°C° 0 mm 1 mps 740 mmHg 80%
    21:00 +14°C° 0 mm 1 mps 741 mmHg 82%
    22:00 +13°C° 0 mm 0 mps 741 mmHg 83%
    23:00 +12°C° 0 mm 0 mps 741 mmHg 84%

    Day after tomorrow, 20 October, Sunday

    Time Temperature Precipitation Wind Pressure Humidity
    00:00 +12°C° 0 mm 0 mps 741 mmHg 85%
    01:00 +12°C° 0 mm 0 mps 741 mmHg 85%
    02:00 +11°C° 0 mm 0 mps 741 mmHg 87%
    03:00 +11°C° 0 mm 0 mps 741 mmHg 88%
    04:00 +12°C° 0 mm 1 mps 741 mmHg 89%
    05:00 +12°C° 0 mm 1 mps 741 mmHg 90%
    06:00 +11°C° 0 mm 0 mps 741 mmHg 91%
    07:00 +10°C° 0 mm 0 mps 741 mmHg 92%
    08:00 +13°C° 0 mm 1 mps 741 mmHg 87%
    09:00 +15°C° 0 mm 2 mps 741 mmHg 81%
    10:00 +16°C° 0 mm 2 mps 741 mmHg 75%
    11:00 +18°C° 0 mm 2 mps 741 mmHg 69%
    12:00 +19°C° 0 mm 2 mps 741 mmHg 63%
    13:00 +20°C° 0 mm 2 mps 740 mmHg 58%
    14:00 +20°C° 0 mm 2 mps 740 mmHg 59%
    15:00 +20°C° 0 mm 2 mps 740 mmHg 61%
    16:00 +20°C° 0 mm 1 mps 740 mmHg 62%
    17:00 +19°C° 0 mm 1 mps 740 mmHg 67%
    18:00 +18°C° 0 mm 1 mps 740 mmHg 72%
    19:00 +16°C° 0 mm 1 mps 740 mmHg 77%
    20:00 +15°C° 0 mm 1 mps 740 mmHg 79%
    21:00 +15°C° 0 mm 1 mps 740 mmHg 81%
    22:00 +14°C° 0 mm 1 mps 740 mmHg 82%
    23:00 +14°C° 0 mm 1 mps 740 mmHg 83%

    21 October, Monday

    Time Temperature Precipitation Wind Pressure Humidity
    00:00 +14°C° 0 mm 1 mps 740 mmHg 84%
    01:00 +13°C° 0 mm 1 mps 740 mmHg 85%
    02:00 +13°C° 0 mm 1 mps 740 mmHg 85%
    03:00 +13°C° 0 mm 1 mps 741 mmHg 85%
    04:00 +13°C° 0 mm 1 mps 741 mmHg 85%
    05:00 +12°C° 0 mm 0 mps 741 mmHg 85%
    06:00 +12°C° 0 mm 0 mps 742 mmHg 84%
    07:00 +12°C° 0 mm 0 mps 742 mmHg 84%
    08:00 +15°C° 0 mm 1 mps 743 mmHg 76%
    09:00 +16°C° 0 mm 1 mps 743 mmHg 69%
    10:00 +19°C° 0 mm 1 mps 744 mmHg 61%
    11:00 +19°C° 0 mm 2 mps 744 mmHg 58%
    12:00 +21°C° 0 mm 2 mps 744 mmHg 55%
    13:00 +22°C° 0 mm 3 mps 744 mmHg 51%
    14:00 +21°C° 0 mm 3 mps 745 mmHg 54%
    15:00 +21°C° 0 mm 2 mps 745 mmHg 57%
    16:00 +20°C° 0 mm 2 mps 745 mmHg 60%
    17:00 +19°C° 0 mm 2 mps 746 mmHg 63%
    18:00 +18°C° 0 mm 3 mps 746 mmHg 67%
    19:00 +17°C° 0 mm 3 mps 747 mmHg 70%
    20:00 +17°C° 0 mm 3 mps 747 mmHg 71%
    21:00 +16°C° 0 mm 3 mps 747 mmHg 72%
    22:00 +16°C° 0 mm 2 mps 748 mmHg 73%
    23:00 +14°C° 0 mm 3 mps 748 mmHg 74%

    22 October, Tuesday

    Time Temperature Precipitation Wind Pressure Humidity
    00:00 +14°C° 0 mm 3 mps 748 mmHg 75%
    01:00 +13°C° 0 mm 3 mps 749 mmHg 76%
    02:00 +13°C° 0 mm 3 mps 749 mmHg 76%
    03:00 +13°C° 0 mm 3 mps 749 mmHg 76%
    04:00 +12°C° 0 mm 3 mps 749 mmHg 75%
    05:00 +12°C° 0 mm 3 mps 749 mmHg 76%
    06:00 +12°C° 0 mm 2 mps 749 mmHg 77%
    07:00 +12°C° 0 mm 2 mps 749 mmHg 78%
    08:00 +13°C° 0 mm 2 mps 750 mmHg 71%
    09:00 +15°C° 0 mm 2 mps 750 mmHg 64%
    10:00 +16°C° 0 mm 3 mps 750 mmHg 57%
    11:00 +17°C° 0 mm 2 mps 750 mmHg 54%
    12:00 +18°C° 0 mm 2 mps 750 mmHg 51%
    13:00 +19°C° 0 mm 2 mps 750 mmHg 48%
    14:00 +19°C° 0 mm 2 mps 749 mmHg 51%
    15:00 +18°C° 0 mm 2 mps 749 mmHg 54%
    16:00 +18°C° 0 mm 2 mps 749 mmHg 57%
    17:00 +17°C° 0 mm 2 mps 749 mmHg 62%
    18:00 +15°C° 0 mm 1 mps 749 mmHg 67%
    19:00 +14°C° 0 mm 1 mps 749 mmHg 73%
    20:00 +14°C° 0 mm 1 mps 749 mmHg 75%
    21:00 +13°C° 0 mm 1 mps 749 mmHg 77%
    22:00 +13°C° 0 mm 1 mps 749 mmHg 80%
    23:00 +12°C° 0 mm 1 mps 749 mmHg 81%

    23 October, Wednesday

    Time Temperature Precipitation Wind Pressure Humidity
    00:00 +12°C° 0 mm 1 mps 749 mmHg 83%
    01:00 +12°C° 0 mm 1 mps 748 mmHg 84%
    02:00 +12°C° 0 mm 1 mps 748 mmHg 85%
    03:00 +11°C° 0 mm 1 mps 748 mmHg 87%
    04:00 +11°C° 0 mm 1 mps 748 mmHg 88%
    05:00 +11°C° 0 mm 1 mps 748 mmHg 88%
    06:00 +10°C° 0 mm 2 mps 747 mmHg 89%
    07:00 +10°C° 0 mm 2 mps 747 mmHg 90%
    08:00 +13°C° 0 mm 3 mps 747 mmHg 81%
    09:00 +15°C° 0 mm 4 mps 747 mmHg 72%
    10:00 +17°C° 0 mm 5 mps 747 mmHg 63%
    11:00 +19°C° 0 mm 5 mps 746 mmHg 60%
    12:00 +20°C° 0 mm 6 mps 746 mmHg 56%
    13:00 +22°C° 0 mm 6 mps 746 mmHg 53%
    14:00 +21°C° 0 mm 6 mps 745 mmHg 55%
    15:00 +21°C° 0 mm 6 mps 745 mmHg 56%
    16:00 +20°C° 0 mm 6 mps 744 mmHg 58%
    17:00 +19°C° 0 mm 5 mps 744 mmHg 62%
    18:00 +17°C° 0 mm 5 mps 744 mmHg 66%
    19:00 +17°C° 0 mm 4 mps 744 mmHg 70%
    20:00 +17°C° 0 mm 4 mps 744 mmHg 73%
    21:00 +15°C° 0 mm 4 mps 744 mmHg 76%
    22:00 +14°C° 0 mm 4 mps 744 mmHg 78%
    23:00 +14°C° 0 mm 4 mps 744 mmHg 80%
    Show more